1595196020,2020-07-20 00:00,83.35,990.94,1012.63,180,19.74,16.85,-41,1
1595196080,2020-07-20 00:01,83.16,990.93,1012.62,180,19.74,16.82,-40,1
1595196140,2020-07-20 00:02,83.26,990.91,1012.60,180,19.74,16.83,-39,1
1595196201,2020-07-20 00:03,83.42,990.91,1012.59,180,19.75,16.87,-41,1
1595196261,2020-07-20 00:04,83.19,990.92,1012.61,180,19.75,16.83,-38,1
1595196321,2020-07-20 00:05,83.31,990.92,1012.60,180,19.73,16.83,-41,1
1595196381,2020-07-20 00:06,83.51,990.93,1012.61,180,19.72,16.86,-40,1
1595196441,2020-07-20 00:07,83.42,990.92,1012.61,180,19.74,16.87,-38,1
1595196501,2020-07-20 00:08,83.74,990.95,1012.64,180,19.71,16.90,-39,1
1595196561,2020-07-20 00:09,83.61,990.93,1012.61,180,19.71,16.87,-38,1
1595196621,2020-07-20 00:10,83.52,990.92,1012.60,180,19.73,16.87,-40,1
1595196681,2020-07-20 00:11,83.68,990.93,1012.62,180,19.71,16.88,-41,1
1595196741,2020-07-20 00:12,83.89,990.94,1012.62,180,19.71,16.92,-39,1
1595196801,2020-07-20 00:13,83.53,990.93,1012.61,180,19.71,16.86,-41,1
1595196861,2020-07-20 00:14,83.80,990.97,1012.66,180,19.69,16.89,-38,1
1595196921,2020-07-20 00:15,83.92,990.97,1012.66,180,19.71,16.93,-38,1
1595196981,2020-07-20 00:16,83.88,990.99,1012.67,180,19.70,16.91,-40,1
1595197041,2020-07-20 00:17,84.22,990.95,1012.64,180,19.70,16.98,-41,1
1595197102,2020-07-20 00:18,84.10,990.95,1012.64,180,19.70,16.95,-37,1
1595197162,2020-07-20 00:19,83.89,990.96,1012.65,180,19.70,16.91,-40,1
1595197222,2020-07-20 00:20,84.33,990.93,1012.62,180,19.69,16.99,-41,1
1595197282,2020-07-20 00:21,84.28,990.94,1012.63,180,19.69,16.98,-40,1
1595197342,2020-07-20 00:22,84.42,990.93,1012.62,180,19.69,17.00,-38,1
1595197402,2020-07-20 00:23,84.44,990.92,1012.60,180,19.68,17.00,-39,1
1595197462,2020-07-20 00:24,85.36,990.93,1012.62,180,19.60,17.09,-39,1
1595197522,2020-07-20 00:25,85.43,990.93,1012.61,180,19.57,17.07,-39,1
1595197582,2020-07-20 00:26,85.23,990.91,1012.60,180,19.53,17.00,-39,1
1595197642,2020-07-20 00:27,86.51,990.93,1012.61,180,19.42,17.13,-39,1
1595197702,2020-07-20 00:28,88.56,990.91,1012.60,180,19.28,17.36,-39,1
1595197762,2020-07-20 00:29,89.55,990.94,1012.62,180,19.21,17.46,-39,1
1595197822,2020-07-20 00:30,88.37,990.94,1012.62,180,19.28,17.32,-40,1
1595197882,2020-07-20 00:31,88.06,990.96,1012.64,180,19.23,17.22,-40,1
1595197942,2020-07-20 00:32,87.59,990.93,1012.62,180,19.23,17.13,-39,1
1595198002,2020-07-20 00:33,87.65,990.99,1012.68,180,19.20,17.12,-37,1
1595198062,2020-07-20 00:34,87.60,990.96,1012.64,180,19.17,17.08,-39,1
1595198123,2020-07-20 00:35,88.29,990.97,1012.66,180,19.09,17.12,-38,1
1595198183,2020-07-20 00:36,88.33,990.98,1012.66,180,19.06,17.10,-39,1
1595198243,2020-07-20 00:37,88.31,990.98,1012.66,180,19.04,17.08,-39,1
1595198303,2020-07-20 00:38,87.65,990.95,1012.63,180,19.08,17.00,-40,1
1595198363,2020-07-20 00:39,87.95,990.94,1012.63,180,19.07,17.04,-41,1
1595198423,2020-07-20 00:40,87.86,990.96,1012.64,180,19.07,17.03,-39,1
1595198483,2020-07-20 00:41,88.59,990.98,1012.67,180,19.02,17.11,-39,1
1595198543,2020-07-20 00:42,88.21,990.96,1012.65,180,19.03,17.05,-40,1
1595198604,2020-07-20 00:43,88.56,990.96,1012.65,180,19.02,17.10,-38,1
1595198664,2020-07-20 00:44,88.26,990.95,1012.63,180,19.05,17.08,-42,1
1595198724,2020-07-20 00:45,89.08,990.94,1012.63,180,19.02,17.19,-41,1
1595198784,2020-07-20 00:46,88.52,990.93,1012.62,180,19.05,17.12,-41,1
1595198844,2020-07-20 00:47,88.38,990.93,1012.62,180,19.07,17.12,-40,1
1595198904,2020-07-20 00:48,88.30,990.94,1012.62,180,19.09,17.13,-42,1
1595198964,2020-07-20 00:49,88.41,990.92,1012.61,180,19.11,17.16,-41,1
1595199024,2020-07-20 00:50,88.39,990.90,1012.59,180,19.13,17.18,-43,1
1595199085,2020-07-20 00:51,88.37,990.88,1012.57,180,19.14,17.19,-42,1
1595199145,2020-07-20 00:52,88.31,990.87,1012.56,180,19.16,17.19,-41,1
1595199205,2020-07-20 00:53,88.76,990.87,1012.56,180,19.15,17.27,-38,1
1595199265,2020-07-20 00:54,89.12,990.86,1012.54,180,19.12,17.30,-40,1
1595199325,2020-07-20 00:55,89.48,990.82,1012.51,180,19.09,17.33,-39,1
1595199385,2020-07-20 00:56,88.57,990.81,1012.50,180,19.14,17.22,-39,1
1595199445,2020-07-20 00:57,88.49,990.80,1012.49,180,19.16,17.23,-39,1
1595199505,2020-07-20 00:58,88.46,990.82,1012.50,180,19.17,17.23,-41,1
1595199565,2020-07-20 00:59,88.52,990.78,1012.47,180,19.18,17.25,-40,1
1595199625,2020-07-20 01:00,88.58,990.78,1012.47,180,19.18,17.26,-41,1
1595199685,2020-07-20 01:01,88.90,990.78,1012.46,180,19.18,17.32,-41,1
1595199745,2020-07-20 01:02,88.66,990.76,1012.44,180,19.19,17.29,-41,1
1595199805,2020-07-20 01:03,88.56,990.79,1012.48,180,19.19,17.27,-40,1
1595199865,2020-07-20 01:04,88.29,990.77,1012.46,180,19.20,17.23,-40,1
1595199925,2020-07-20 01:05,88.23,990.78,1012.46,180,19.21,17.23,-41,1
1595199986,2020-07-20 01:06,88.23,990.77,1012.46,180,19.20,17.22,-41,1
1595200046,2020-07-20 01:07,88.16,990.77,1012.46,180,19.21,17.22,-41,1
1595200106,2020-07-20 01:08,88.89,990.78,1012.46,180,19.17,17.31,-39,1
1595200166,2020-07-20 01:09,89.37,990.77,1012.46,180,19.10,17.32,-39,1
1595200226,2020-07-20 01:10,88.63,990.74,1012.42,180,19.12,17.21,-38,1
1595200286,2020-07-20 01:11,88.52,990.75,1012.44,180,19.11,17.18,-39,1
1595200347,2020-07-20 01:12,88.59,990.74,1012.43,180,19.11,17.20,-41,1
1595200407,2020-07-20 01:13,88.66,990.69,1012.38,180,19.11,17.21,-39,1
1595200467,2020-07-20 01:14,89.03,990.71,1012.39,180,19.08,17.25,-40,1
1595200527,2020-07-20 01:15,88.91,990.67,1012.36,180,19.08,17.22,-41,1
1595200587,2020-07-20 01:16,88.97,990.68,1012.37,180,19.08,17.23,-40,1
1595200647,2020-07-20 01:17,88.99,990.65,1012.34,180,19.08,17.24,-39,1
1595200707,2020-07-20 01:18,89.14,990.64,1012.33,180,19.07,17.25,-39,1
1595200767,2020-07-20 01:19,89.21,990.66,1012.35,180,19.07,17.27,-39,1
1595200827,2020-07-20 01:20,89.37,990.65,1012.34,180,19.07,17.30,-39,1
1595200887,2020-07-20 01:21,89.25,990.63,1012.32,180,19.08,17.28,-38,1
1595200947,2020-07-20 01:22,89.22,990.63,1012.31,180,19.07,17.27,-40,1
1595201007,2020-07-20 01:23,89.10,990.63,1012.32,180,19.08,17.26,-39,1
1595201068,2020-07-20 01:24,88.80,990.62,1012.31,180,19.07,17.19,-39,1
1595201128,2020-07-20 01:25,88.85,990.63,1012.32,180,19.07,17.20,-39,1
1595201188,2020-07-20 01:26,88.90,990.62,1012.31,180,19.06,17.20,-39,1
1595201248,2020-07-20 01:27,88.88,990.61,1012.29,180,19.04,17.18,-39,1
1595201308,2020-07-20 01:28,88.89,990.62,1012.31,180,19.04,17.18,-39,1
1595201369,2020-07-20 01:29,88.78,990.60,1012.29,180,19.04,17.16,-40,1
1595201429,2020-07-20 01:30,88.78,990.62,1012.31,180,19.03,17.15,-39,1
1595201489,2020-07-20 01:31,89.14,990.62,1012.30,180,19.01,17.19,-38,1
1595201549,2020-07-20 01:32,89.09,990.61,1012.30,180,18.99,17.17,-39,1
1595201609,2020-07-20 01:33,89.16,990.60,1012.29,180,18.99,17.18,-38,1
1595201732,2020-07-20 01:35,89.13,990.58,1012.27,180,18.96,17.14,-39,1
1595201792,2020-07-20 01:36,89.32,990.57,1012.25,180,18.96,17.18,-39,1
1595201853,2020-07-20 01:37,89.64,990.56,1012.25,180,18.91,17.18,-39,1
1595201913,2020-07-20 01:38,89.42,990.55,1012.24,180,18.92,17.16,-39,1
1595201973,2020-07-20 01:39,89.52,990.53,1012.22,180,18.90,17.15,-39,1
1595202033,2020-07-20 01:40,89.59,990.53,1012.21,180,18.89,17.16,-41,1
1595202093,2020-07-20 01:41,89.67,990.52,1012.21,180,18.87,17.15,-39,1
1595202153,2020-07-20 01:42,89.75,990.50,1012.19,180,18.87,17.17,-39,1
1595202214,2020-07-20 01:43,89.99,990.51,1012.19,180,18.85,17.19,-39,1
1595202274,2020-07-20 01:44,89.85,990.49,1012.18,180,18.86,17.17,-39,1
1595202334,2020-07-20 01:45,90.02,990.53,1012.22,180,18.85,17.19,-39,1
1595202394,2020-07-20 01:46,90.27,990.51,1012.20,180,18.85,17.24,-39,1
1595202454,2020-07-20 01:47,90.43,990.50,1012.18,180,18.84,17.25,-39,1
1595202514,2020-07-20 01:48,90.14,990.52,1012.20,180,18.86,17.22,-41,1
1595202575,2020-07-20 01:49,90.05,990.49,1012.17,180,18.86,17.21,-41,1
1595202635,2020-07-20 01:50,90.08,990.45,1012.14,180,18.86,17.21,-39,1
1595202695,2020-07-20 01:51,90.20,990.48,1012.16,180,18.85,17.22,-40,1
1595202755,2020-07-20 01:52,90.20,990.49,1012.18,180,18.84,17.21,-40,1
1595202815,2020-07-20 01:53,90.11,990.47,1012.16,180,18.85,17.21,-39,1
1595202875,2020-07-20 01:54,90.33,990.48,1012.17,180,18.84,17.24,-40,1
1595202935,2020-07-20 01:55,90.17,990.46,1012.15,180,18.83,17.20,-40,1
1595202995,2020-07-20 01:56,90.17,990.47,1012.15,180,18.82,17.19,-38,1
1595203055,2020-07-20 01:57,90.05,990.46,1012.15,180,18.82,17.17,-41,1
1595203116,2020-07-20 01:58,90.14,990.43,1012.12,180,18.81,17.17,-39,1
1595203176,2020-07-20 01:59,90.14,990.44,1012.13,180,18.80,17.16,-40,1
1595203236,2020-07-20 02:00,90.06,990.42,1012.11,180,18.80,17.15,-38,1
1595203296,2020-07-20 02:01,90.07,990.43,1012.11,180,18.79,17.14,-40,1
1595203356,2020-07-20 02:02,90.14,990.41,1012.09,180,18.77,17.13,-40,1
1595203416,2020-07-20 02:03,90.17,990.41,1012.10,180,18.77,17.14,-38,1
1595203476,2020-07-20 02:04,90.33,990.42,1012.11,180,18.75,17.15,-41,1
1595203536,2020-07-20 02:05,90.30,990.40,1012.08,180,18.74,17.13,-38,1
1595203596,2020-07-20 02:06,90.27,990.39,1012.07,180,18.73,17.12,-40,1
1595203656,2020-07-20 02:07,90.12,990.39,1012.07,180,18.71,17.07,-40,1
1595203716,2020-07-20 02:08,91.25,990.39,1012.07,180,18.64,17.20,-38,1
1595203776,2020-07-20 02:09,90.63,990.38,1012.07,180,18.65,17.10,-39,1
1595203836,2020-07-20 02:10,90.36,990.35,1012.04,180,18.66,17.06,-39,1
1595203896,2020-07-20 02:11,90.63,990.37,1012.05,180,18.63,17.08,-40,1
1595203956,2020-07-20 02:12,90.13,990.33,1012.01,180,18.63,17.00,-40,1
1595204016,2020-07-20 02:13,90.44,990.35,1012.03,180,18.61,17.03,-40,1
1595204077,2020-07-20 02:14,90.30,990.36,1012.04,180,18.62,17.01,-39,1
1595204137,2020-07-20 02:15,90.35,990.33,1012.02,180,18.61,17.01,-39,1
1595204197,2020-07-20 02:16,90.28,990.33,1012.02,180,18.61,17.00,-39,1
1595204257,2020-07-20 02:17,90.23,990.36,1012.05,180,18.60,16.98,-39,1
1595204317,2020-07-20 02:18,90.11,990.34,1012.03,180,18.59,16.95,-41,1
1595204377,2020-07-20 02:19,90.00,990.34,1012.03,180,18.58,16.92,-38,1
1595204437,2020-07-20 02:20,89.90,990.36,1012.05,180,18.57,16.89,-40,1
1595204497,2020-07-20 02:21,90.00,990.35,1012.04,180,18.56,16.90,-39,1
1595204557,2020-07-20 02:22,91.25,990.34,1012.03,180,18.48,17.04,-40,1
1595204617,2020-07-20 02:23,90.50,990.34,1012.03,180,18.50,16.93,-41,1
1595204677,2020-07-20 02:24,92.42,990.36,1012.04,180,18.34,17.10,-39,1
1595204737,2020-07-20 02:25,91.36,990.37,1012.06,180,18.39,16.97,-38,1
1595204797,2020-07-20 02:26,90.80,990.35,1012.03,180,18.42,16.90,-38,1
1595204857,2020-07-20 02:27,90.76,990.34,1012.02,180,18.41,16.89,-39,1
1595204917,2020-07-20 02:28,91.20,990.32,1012.00,180,18.37,16.92,-40,1
1595204977,2020-07-20 02:29,90.85,990.30,1011.99,180,18.38,16.87,-41,1
1595205037,2020-07-20 02:30,90.83,990.29,1011.98,180,18.37,16.86,-39,1
1595205097,2020-07-20 02:31,90.99,990.29,1011.98,180,18.36,16.88,-40,1
1595205157,2020-07-20 02:32,91.14,990.29,1011.97,180,18.36,16.90,-40,1
1595205217,2020-07-20 02:33,91.23,990.27,1011.96,180,18.34,16.90,-39,1
1595205277,2020-07-20 02:34,91.81,990.27,1011.95,180,18.31,16.97,-39,1
1595205337,2020-07-20 02:35,91.51,990.22,1011.90,180,18.31,16.92,-40,1
1595205397,2020-07-20 02:36,91.60,990.19,1011.88,180,18.31,16.93,-39,1
1595205458,2020-07-20 02:37,91.43,990.18,1011.87,180,18.31,16.90,-41,1
1595205518,2020-07-20 02:38,91.65,990.15,1011.84,180,18.30,16.93,-39,1
1595205578,2020-07-20 02:39,91.47,990.15,1011.83,180,18.29,16.89,-39,1
1595205638,2020-07-20 02:40,91.25,990.18,1011.86,180,18.29,16.85,-39,1
1595205698,2020-07-20 02:41,91.20,990.16,1011.85,180,18.29,16.84,-40,1
1595205758,2020-07-20 02:42,91.11,990.17,1011.86,180,18.28,16.82,-40,1
1595205818,2020-07-20 02:43,91.01,990.17,1011.86,180,18.28,16.80,-39,1
1595205878,2020-07-20 02:44,91.04,990.16,1011.85,180,18.27,16.80,-39,1
1595205938,2020-07-20 02:45,91.19,990.18,1011.87,180,18.27,16.82,-38,1
1595205998,2020-07-20 02:46,91.22,990.16,1011.84,180,18.26,16.82,-38,1
1595206058,2020-07-20 02:47,91.31,990.15,1011.83,180,18.24,16.81,-41,1
1595206118,2020-07-20 02:48,91.15,990.15,1011.84,180,18.23,16.78,-38,1
1595206178,2020-07-20 02:49,91.12,990.15,1011.83,180,18.24,16.78,-40,1
1595206238,2020-07-20 02:50,91.08,990.16,1011.84,180,18.24,16.77,-39,1
1595206298,2020-07-20 02:51,91.09,990.14,1011.83,180,18.23,16.77,-40,1
1595206358,2020-07-20 02:52,91.04,990.15,1011.84,180,18.22,16.75,-39,1
1595206418,2020-07-20 02:53,90.63,990.15,1011.84,180,18.23,16.69,-39,1
1595206478,2020-07-20 02:54,91.16,990.16,1011.84,180,18.21,16.76,-39,1
1595206538,2020-07-20 02:55,91.42,990.14,1011.83,180,18.17,16.76,-39,1
1595206599,2020-07-20 02:56,91.50,990.15,1011.83,180,18.15,16.76,-39,1
1595206659,2020-07-20 02:57,91.31,990.14,1011.83,180,18.15,16.72,-39,1
1595206719,2020-07-20 02:58,91.24,990.14,1011.83,180,18.15,16.71,-41,1
1595206779,2020-07-20 02:59,91.28,990.11,1011.80,180,18.14,16.71,-39,1
1595206839,2020-07-20 03:00,91.15,990.13,1011.81,180,18.12,16.67,-39,1
1595206899,2020-07-20 03:01,91.04,990.09,1011.78,180,18.11,16.64,-40,1
1595206959,2020-07-20 03:02,91.61,990.11,1011.79,180,18.06,16.69,-39,1
1595207019,2020-07-20 03:03,91.03,990.08,1011.77,180,18.06,16.59,-39,1
1595207079,2020-07-20 03:04,91.13,990.07,1011.76,180,18.04,16.58,-39,1
1595207139,2020-07-20 03:05,91.08,990.10,1011.78,180,18.03,16.57,-38,1
1595207199,2020-07-20 03:06,91.00,990.06,1011.75,180,18.01,16.53,-41,1
1595207259,2020-07-20 03:07,90.62,990.07,1011.75,180,18.00,16.46,-40,1
1595207319,2020-07-20 03:08,90.62,990.07,1011.76,180,17.98,16.44,-39,1
1595207379,2020-07-20 03:09,90.58,990.06,1011.74,180,17.96,16.41,-40,1
1595207439,2020-07-20 03:10,90.49,990.07,1011.75,180,17.93,16.37,-40,1
1595207500,2020-07-20 03:11,90.54,990.07,1011.75,180,17.90,16.34,-38,1
1595207560,2020-07-20 03:12,90.70,990.13,1011.82,180,17.88,16.35,-38,1
1595207620,2020-07-20 03:13,90.48,990.10,1011.79,180,17.86,16.29,-39,1
1595207680,2020-07-20 03:14,90.60,990.08,1011.76,180,17.84,16.30,-41,1
1595207740,2020-07-20 03:15,90.56,990.08,1011.77,180,17.81,16.26,-40,1
1595207800,2020-07-20 03:16,90.57,990.06,1011.75,180,17.79,16.24,-39,1
1595207860,2020-07-20 03:17,90.50,990.07,1011.76,180,17.78,16.22,-39,1
1595207920,2020-07-20 03:18,90.56,990.06,1011.74,180,17.76,16.21,-40,1
1595207980,2020-07-20 03:19,90.50,990.07,1011.76,180,17.75,16.19,-39,1
1595208040,2020-07-20 03:20,90.64,990.08,1011.77,180,17.73,16.19,-38,1
1595208100,2020-07-20 03:21,90.55,990.04,1011.73,180,17.70,16.15,-38,1
1595208160,2020-07-20 03:22,90.39,990.04,1011.73,180,17.68,16.10,-41,1
1595208220,2020-07-20 03:23,90.37,990.05,1011.73,180,17.65,16.07,-39,1
1595208280,2020-07-20 03:24,90.35,990.03,1011.72,180,17.63,16.05,-41,1
1595208340,2020-07-20 03:25,90.39,990.03,1011.71,180,17.61,16.03,-38,1
1595208400,2020-07-20 03:26,90.42,989.99,1011.68,180,17.59,16.02,-39,1
1595208460,2020-07-20 03:27,90.66,989.99,1011.67,180,17.57,16.04,-39,1
1595208520,2020-07-20 03:28,90.70,989.99,1011.68,180,17.54,16.02,-40,1
1595208580,2020-07-20 03:29,90.37,990.00,1011.68,180,17.53,15.95,-39,1
1595208640,2020-07-20 03:30,90.41,989.99,1011.67,180,17.52,15.95,-39,1
1595208701,2020-07-20 03:31,90.66,989.96,1011.65,180,17.49,15.96,-39,1
1595208761,2020-07-20 03:32,90.60,989.98,1011.67,180,17.47,15.93,-39,1
1595208821,2020-07-20 03:33,90.62,989.95,1011.64,180,17.44,15.90,-41,1
1595208881,2020-07-20 03:34,90.99,989.97,1011.65,180,17.39,15.92,-38,1
1595208941,2020-07-20 03:35,90.95,989.96,1011.65,180,17.37,15.89,-39,1
1595209001,2020-07-20 03:36,90.71,989.96,1011.65,180,17.37,15.85,-39,1
1595209061,2020-07-20 03:37,90.69,989.97,1011.66,180,17.35,15.83,-40,1
1595209121,2020-07-20 03:38,90.39,989.96,1011.65,180,17.35,15.78,-39,1
1595209181,2020-07-20 03:39,90.28,989.92,1011.60,180,17.33,15.74,-40,1
1595209241,2020-07-20 03:40,90.41,989.89,1011.58,180,17.28,15.71,-39,1
1595209301,2020-07-20 03:41,90.26,989.89,1011.58,180,17.25,15.65,-39,1
1595209361,2020-07-20 03:42,90.57,989.89,1011.58,180,17.21,15.67,-39,1
1595209421,2020-07-20 03:43,90.84,989.93,1011.62,180,17.16,15.66,-40,1
1595209481,2020-07-20 03:44,90.45,989.92,1011.61,180,17.15,15.59,-39,1
1595209541,2020-07-20 03:45,90.53,989.90,1011.59,180,17.12,15.57,-39,1
1595209601,2020-07-20 03:46,90.49,989.90,1011.58,180,17.11,15.56,-40,1
1595209661,2020-07-20 03:47,90.57,989.89,1011.58,180,17.08,15.54,-38,1
1595209721,2020-07-20 03:48,90.49,989.90,1011.58,180,17.08,15.53,-40,1
1595209782,2020-07-20 03:49,90.65,989.89,1011.57,180,17.05,15.52,-39,1
1595209842,2020-07-20 03:50,90.64,989.88,1011.57,180,17.04,15.51,-40,1
1595209902,2020-07-20 03:51,90.61,989.86,1011.55,180,17.03,15.50,-39,1
1595209962,2020-07-20 03:52,90.96,989.84,1011.53,180,17.01,15.54,-37,1
1595210022,2020-07-20 03:53,90.76,989.83,1011.52,180,16.99,15.48,-39,1
1595210082,2020-07-20 03:54,90.87,989.83,1011.52,180,16.97,15.48,-40,1
1595210142,2020-07-20 03:55,91.04,989.82,1011.50,180,16.95,15.49,-39,1
1595210202,2020-07-20 03:56,91.04,989.82,1011.50,180,16.93,15.47,-39,1
1595210262,2020-07-20 03:57,90.96,989.80,1011.49,180,16.91,15.44,-40,1
1595210322,2020-07-20 03:58,91.06,989.81,1011.50,180,16.88,15.43,-39,1
1595210382,2020-07-20 03:59,91.16,989.81,1011.50,180,16.86,15.42,-41,1
1595210442,2020-07-20 04:00,91.01,989.82,1011.51,180,16.83,15.37,-41,1
1595210502,2020-07-20 04:01,91.14,989.82,1011.51,180,16.79,15.35,-39,1
1595210562,2020-07-20 04:02,91.28,989.86,1011.54,180,16.75,15.34,-39,1
1595210622,2020-07-20 04:03,91.14,989.84,1011.53,180,16.72,15.28,-39,1
1595210682,2020-07-20 04:04,91.14,989.84,1011.52,180,16.68,15.24,-38,1
1595210742,2020-07-20 04:05,91.37,989.85,1011.54,180,16.64,15.24,-39,1
1595210802,2020-07-20 04:06,91.46,989.86,1011.54,180,16.60,15.22,-39,1
1595210862,2020-07-20 04:07,91.61,989.88,1011.56,180,16.56,15.20,-39,1
1595210922,2020-07-20 04:08,91.55,989.87,1011.56,180,16.54,15.17,-39,1
1595210982,2020-07-20 04:09,91.57,989.89,1011.58,180,16.51,15.15,-40,1
1595211042,2020-07-20 04:10,91.64,989.87,1011.55,180,16.49,15.14,-39,1
1595211102,2020-07-20 04:11,91.88,989.88,1011.56,180,16.47,15.16,-40,1
1595211162,2020-07-20 04:12,91.82,989.85,1011.54,180,16.44,15.12,-40,1
1595211223,2020-07-20 04:13,91.96,989.86,1011.55,180,16.42,15.12,-40,1
1595211283,2020-07-20 04:14,91.81,989.87,1011.56,180,16.41,15.09,-40,1
1595211343,2020-07-20 04:15,92.00,989.88,1011.57,180,16.38,15.09,-41,1
1595211403,2020-07-20 04:16,92.44,989.88,1011.57,180,16.32,15.11,-39,1
1595211463,2020-07-20 04:17,92.55,989.90,1011.59,180,16.29,15.09,-41,1
1595211523,2020-07-20 04:18,92.60,989.88,1011.57,180,16.27,15.08,-39,1
1595211583,2020-07-20 04:19,92.34,989.91,1011.60,180,16.26,15.03,-40,1
1595211643,2020-07-20 04:20,92.23,989.94,1011.63,180,16.22,14.97,-38,1
1595211703,2020-07-20 04:21,92.48,989.92,1011.61,180,16.20,14.99,-39,1
1595211763,2020-07-20 04:22,92.21,989.94,1011.63,180,16.19,14.94,-40,1
1595211823,2020-07-20 04:23,92.30,989.96,1011.65,180,16.16,14.92,-39,1
1595211883,2020-07-20 04:24,92.22,989.92,1011.61,180,16.14,14.89,-39,1
1595211943,2020-07-20 04:25,92.43,989.94,1011.63,180,16.13,14.92,-39,1
1595212003,2020-07-20 04:26,92.17,989.93,1011.62,180,16.12,14.86,-40,1
1595212063,2020-07-20 04:27,92.25,989.95,1011.64,180,16.10,14.85,-39,1
1595212123,2020-07-20 04:28,92.22,989.93,1011.62,180,16.09,14.84,-39,1
1595212183,2020-07-20 04:29,92.39,989.93,1011.62,180,16.07,14.85,-39,1
1595212243,2020-07-20 04:30,92.33,989.92,1011.61,180,16.06,14.83,-39,1
1595212304,2020-07-20 04:31,92.32,989.94,1011.63,180,16.06,14.83,-39,1
1595212364,2020-07-20 04:32,92.37,989.94,1011.63,180,16.06,14.84,-39,1
1595212424,2020-07-20 04:33,92.44,989.92,1011.61,180,16.06,14.85,-41,1
1595212484,2020-07-20 04:34,92.71,989.94,1011.63,180,16.06,14.89,-39,1
1595212544,2020-07-20 04:35,92.67,989.93,1011.61,180,16.07,14.90,-39,1
1595212604,2020-07-20 04:36,92.92,989.97,1011.66,180,16.06,14.93,-41,1
1595212664,2020-07-20 04:37,92.94,989.95,1011.64,180,16.06,14.93,-39,1
1595212724,2020-07-20 04:38,93.12,989.96,1011.65,180,16.07,14.97,-39,1
1595212784,2020-07-20 04:39,93.21,989.94,1011.62,180,16.06,14.98,-39,1
1595212844,2020-07-20 04:40,93.10,989.94,1011.62,180,16.07,14.97,-40,1
1595212904,2020-07-20 04:41,93.12,989.94,1011.62,180,16.07,14.97,-41,1
1595212964,2020-07-20 04:42,93.09,989.94,1011.63,180,16.06,14.96,-39,1
1595213024,2020-07-20 04:43,93.03,989.91,1011.60,180,16.05,14.94,-39,1
1595213084,2020-07-20 04:44,93.02,989.94,1011.62,180,16.04,14.93,-39,1
1595213144,2020-07-20 04:45,93.37,989.95,1011.64,180,16.02,14.96,-39,1
1595213204,2020-07-20 04:46,93.62,989.93,1011.62,180,16.01,14.99,-39,1
1595213264,2020-07-20 04:47,93.62,989.96,1011.65,180,16.01,15.00,-39,1
1595213324,2020-07-20 04:48,94.03,989.97,1011.65,180,16.01,15.06,-40,1
1595213384,2020-07-20 04:49,93.93,989.92,1011.61,180,16.02,15.06,-39,1
1595213444,2020-07-20 04:50,94.08,989.94,1011.62,180,16.01,15.07,-38,1
1595213504,2020-07-20 04:51,94.28,989.92,1011.61,180,15.98,15.07,-39,1
1595213564,2020-07-20 04:52,94.36,989.91,1011.60,180,15.99,15.10,-40,1
1595213624,2020-07-20 04:53,94.29,989.94,1011.63,180,15.99,15.09,-41,1
1595213684,2020-07-20 04:54,94.76,989.94,1011.63,180,15.98,15.15,-38,1
1595213744,2020-07-20 04:55,94.70,989.93,1011.62,180,15.98,15.14,-39,1
1595213805,2020-07-20 04:56,95.14,989.93,1011.61,180,15.98,15.22,-39,1
1595213865,2020-07-20 04:57,96.70,989.92,1011.61,180,15.94,15.43,-39,1
1595213925,2020-07-20 04:58,95.90,989.92,1011.60,180,15.97,15.33,-41,1
1595213985,2020-07-20 04:59,95.49,989.92,1011.60,180,15.98,15.27,-39,1
1595214045,2020-07-20 05:00,95.35,989.92,1011.61,180,16.01,15.28,-39,1
1595214105,2020-07-20 05:01,95.29,989.94,1011.62,180,16.03,15.29,-41,1
1595214165,2020-07-20 05:02,95.24,989.91,1011.60,180,16.05,15.30,-39,1
1595214225,2020-07-20 05:03,95.41,989.91,1011.59,180,16.05,15.33,-40,1
1595214285,2020-07-20 05:04,95.25,989.92,1011.61,180,16.07,15.32,-39,1
1595214345,2020-07-20 05:05,95.25,989.93,1011.62,180,16.09,15.34,-40,1
1595214405,2020-07-20 05:06,96.10,989.95,1011.63,180,16.04,15.43,-38,1
1595214465,2020-07-20 05:07,95.94,989.93,1011.62,180,16.05,15.41,-41,1
1595214525,2020-07-20 05:08,95.54,989.97,1011.66,180,16.08,15.38,-38,1
1595214585,2020-07-20 05:09,95.93,989.96,1011.65,180,16.07,15.43,-40,1
1595214645,2020-07-20 05:10,95.49,989.96,1011.65,180,16.09,15.38,-40,1
1595214705,2020-07-20 05:11,95.47,989.96,1011.65,180,16.11,15.40,-39,1
1595214765,2020-07-20 05:12,95.45,990.00,1011.69,180,16.13,15.41,-39,1
1595214825,2020-07-20 05:13,95.47,990.02,1011.71,180,16.14,15.43,-38,1
1595214885,2020-07-20 05:14,96.30,990.01,1011.69,180,16.10,15.52,-39,1
1595214945,2020-07-20 05:15,96.24,990.03,1011.72,180,16.11,15.52,-40,1
1595215005,2020-07-20 05:16,96.70,990.01,1011.70,180,16.06,15.55,-40,1
1595215065,2020-07-20 05:17,97.14,989.98,1011.67,180,16.02,15.58,-39,1
1595215126,2020-07-20 05:18,96.87,989.98,1011.66,180,16.05,15.57,-39,1
1595215186,2020-07-20 05:19,96.80,989.98,1011.66,180,16.09,15.59,-39,1
1595215246,2020-07-20 05:20,96.35,989.97,1011.66,180,16.11,15.54,-39,1
1595215306,2020-07-20 05:21,96.24,989.99,1011.67,180,16.14,15.55,-39,1
1595215366,2020-07-20 05:22,96.26,989.96,1011.65,180,16.15,15.57,-39,1
1595215426,2020-07-20 05:23,96.32,990.00,1011.69,180,16.17,15.60,-39,1
1595215486,2020-07-20 05:24,96.28,990.01,1011.70,180,16.18,15.60,-39,1
1595215546,2020-07-20 05:25,96.27,990.04,1011.72,180,16.21,15.63,-39,1
1595215606,2020-07-20 05:26,96.44,990.04,1011.73,180,16.23,15.68,-39,1
1595215666,2020-07-20 05:27,96.50,990.02,1011.71,180,16.25,15.71,-38,1
1595215726,2020-07-20 05:28,96.76,990.04,1011.72,180,16.23,15.73,-40,1
1595215786,2020-07-20 05:29,96.58,989.99,1011.68,180,16.29,15.76,-41,1
1595215846,2020-07-20 05:30,96.61,990.01,1011.70,180,16.31,15.78,-39,1
1595215906,2020-07-20 05:31,96.68,989.99,1011.68,180,16.34,15.82,-41,1
1595215966,2020-07-20 05:32,96.72,990.01,1011.70,180,16.37,15.86,-39,1
1595216026,2020-07-20 05:33,96.77,990.05,1011.74,180,16.41,15.91,-38,1
1595216086,2020-07-20 05:34,96.73,990.04,1011.73,180,16.43,15.92,-41,1
1595216146,2020-07-20 05:35,96.44,990.06,1011.75,180,16.44,15.89,-40,1
1595216206,2020-07-20 05:36,96.34,990.07,1011.75,180,16.47,15.90,-40,1
1595216266,2020-07-20 05:37,96.07,990.05,1011.74,180,16.48,15.86,-40,1
1595216326,2020-07-20 05:38,95.99,990.04,1011.73,180,16.50,15.87,-40,1